Location: Gro�sch�nbrunn
(49.5760°N, 11.8868°E)
Time: 13:29:39
(UTC+00:00)

USA 234 - Pass Details

Date: 18 September 2020
Orbit: 1102 x 1106 km, 123.0° (Epoch: 16 October)

Event Time Altitude Azimuth Distance (km) Brightness Sun altitude
Rises 20:15:54 0° 56° (ENE) 3,927 6.0 -27.3°
Enters shadow 20:16:06 - 56° (ENE) 3,853 6.0 -27.3°
Exits shadow 20:19:21 15° 57° (ENE) 2,601 5.0 -27.7°
Maximum altitude 20:24:58 90° 140° (SE) 1,110 3.1 -28.4°
Drops below altitude 10° 20:31:32 10° 239° (WSW) 2,960 5.7 -29.1°
Sets 20:34:00 0° 240° (WSW) 3,916 6.3 -29.4°
